Location: Amsterdam
(30.7274°N, 84.4357°W)
Time: 08:14:27
(UTC+00:00)

Explorer 7 - All Passes

Search period start: 17 February 2026 00:00
Search period end: 27 February 2026 00:00
Orbit: 431 x 545 km, 50.2° (Epoch: 16 February)

Date Brightness Start Highest point End Pass type
(mag) Time Alt. Az. Time Alt. Az. Time Alt. Az.
17 Feb - 03:00:02 10° NNW 03:03:25 26° NE 03:06:51 10° E night (unlit)
17 Feb - 04:38:15 10° WNW 04:41:53 33° SW 04:45:34 10° SSE night (unlit)
17 Feb - 19:55:09 10° WSW 19:58:33 56° NW 20:02:04 10° NE daylight
18 Feb - 02:34:26 10° NNW 02:37:44 25° NE 02:41:05 10° E night (unlit)
18 Feb - 04:12:33 10° WNW 04:16:13 35° SW 04:19:57 10° SSE night (unlit)
18 Feb - 19:29:29 10° WSW 19:32:53 60° NW 19:36:24 10° NE daylight
19 Feb - 02:08:49 10° NNW 02:12:01 24° NE 02:15:18 10° E visible
19 Feb - 03:46:50 10° WNW 03:50:31 37° SW 03:54:17 10° SSE night (unlit)
19 Feb - 19:03:46 10° SW 19:07:11 64° NW 19:10:41 10° NE daylight
20 Feb - 01:43:10 10° NNW 01:46:16 23° NE 01:49:28 10° E visible
20 Feb - 03:21:06 10° WNW 03:24:48 39° SW 03:28:34 10° SSE night (unlit)
20 Feb - 18:38:02 10° SW 18:41:27 69° NW 18:44:56 10° NE daylight
21 Feb - 01:17:28 10° NNW 01:20:29 22° NE 01:23:35 10° E visible
21 Feb - 02:55:19 10° WNW 02:59:01 41° SW 03:02:49 10° SSE night (unlit)
21 Feb - 18:12:16 10° SW 18:15:40 74° NW 18:19:09 10° NE daylight
22 Feb - 00:51:44 10° NNW 00:54:40 21° NE 00:57:40 10° E visible
22 Feb - 02:29:31 10° WNW 02:33:13 44° SW 02:37:03 10° SSE visible
22 Feb - 17:46:27 10° SW 17:49:52 79° NW 17:53:21 10° NE daylight
22 Feb - 19:28:11 10° NW 19:28:46 10° NNW 19:29:21 10° NNW daylight
23 Feb - 00:25:59 10° NNW 00:28:49 20° NE 00:31:42 10° E visible
23 Feb - 02:03:40 10° WNW 02:07:23 47° SW 02:11:13 10° SSE visible
23 Feb - 17:20:37 10° SW 17:24:02 85° NW 17:27:30 10° NE daylight
23 Feb - 19:02:02 10° NW 19:02:53 11° NNW 19:03:44 10° NNW daylight
24 Feb - 00:00:13 10° NNW 00:02:56 19° NNE 00:05:43 10° E visible
24 Feb - 01:37:47 10° WNW 01:41:30 50° SW 01:45:21 10° SSE visible
24 Feb - 16:54:45 10° SW 16:58:10 89° SE 17:01:37 10° NE daylight
24 Feb - 18:35:55 10° NW 18:36:58 11° NNW 18:38:03 10° N daylight
24 Feb - 23:34:25 10° N 23:37:00 18° NNE 23:39:40 10° ENE daylight
25 Feb - 01:11:53 10° NW 01:15:37 53° SW 01:19:27 10° SSE visible
25 Feb - 16:28:51 10° SW 16:32:15 83° SE 16:35:42 10° NE daylight
25 Feb - 18:09:47 10° NW 18:11:01 11° NNW 18:12:16 10° N daylight
25 Feb - 23:08:35 10° N 23:11:03 17° NNE 23:13:34 10° ENE daylight
26 Feb - 00:45:57 10° NW 00:49:40 57° SW 00:53:31 10° SSE visible
26 Feb - 16:02:55 10° SW 16:06:18 77° SE 16:09:45 10° NE daylight
26 Feb - 17:43:38 10° NW 17:45:03 12° NNW 17:46:28 10° N daylight
26 Feb - 22:42:44 10° N 22:45:04 16° NNE 22:47:27 10° ENE daylight
